Location: Allonne
(49.4086°N, 2.1143°E)
Time: 15:41:47
(UTC+00:00)

DMSP B5D2-2 - Pass Details

Date: 08 August 2024
Orbit: 787 x 802 km, 98.3° (Epoch: 09 September)

Event Time Altitude Azimuth Distance (km) Brightness Sun altitude
Rises 02:21:53 0° 133° (SE) 3,278 7.2 -17.2°
Reaches altitude 10° 02:24:24 10° 124° (SE) 2,352 6.6 -16.9°
Maximum altitude 02:28:56 31° 63° (ENE) 1,350 5.9 -16.5°
Drops below altitude 10° 02:33:28 10° 2° (N) 2,361 7.3 -16.0°
Sets 02:36:00 0° 353° (N) 3,294 8.0 -15.8°
